Location: Lucerne Valley
(34.4439°N, 116.9669°E)
Time: 18:25:39
(UTC-07:00)

ISS - Pass Details

Date: 13 October 2017
Orbit: 401 x 408 km, 51.6° (Epoch: 21 October)

Event Time Altitude Azimuth Distance (km) Brightness Sun altitude
Rises 03:23:13 0° 327° (NNW) 2,321 0.5 -9.6°
Reaches altitude 10° 03:25:55 10° 351° (N) 1,461 -0.9 -10.1°
Maximum altitude 03:27:59 16° 30° (NNE) 1,168 -1.8 -10.6°
Enters shadow 03:29:14 13° 57° (ENE) 1,280 -1.8 -10.8°
